Probability
0 0 0 0 0 0 0 0 0 0 0 0 0 0 0 0 0 0 0 0 0 0 0 0 0 0 0 0 0 0 0 0 0 0 0 0 2 5 6 5 4 4 4 3 2 0 1 2 2
1 0 0 0 0 0 0 0 0 0 0 0 0 0 0 0 0 0 0 0 0 0 0 0 0 0 0 0 0 0 0 0 1 1 0 0 2 3 4 4 3 4 4 4 3 2 1 1 1
1 0 0 0 0 0 0 0 0 0 0 0 0 0 0 0 0 0 0 0 0 0 0 0 0 0 0 0 0 0 0 0 1 1 0 0 1 1 2 2 2 3 4 4 4 4 2 1 1
1 0 0 0 0 0 0 0 0 0 0 0 0 0 0 0 0 0 0 0 0 1 2 1 0 0 0 0 0 0 0 0 1 1 0 0 0 0 1 1 2 3 3 2 2 3 3 2 2
2 1 0 0 0 0 0 0 0 0 0 0 0 0 0 0 0 0 0 0 0 2 2 2 0 0 0 0 0 0 0 0 0 0 0 0 0 0 0 0 1 3 4 3 2 2 2 2 3
2 1 0 0 0 0 0 0 0 0 0 0 0 0 0 0 0 0 0 0 0 1 2 1 0 0 0 0 0 0 0 0 0 0 0 0 0 0 1 0 0 2 4 4 3 1 1 1 3
1 0 0 0 0 0 0 0 0 0 0 0 0 0 0 0 0 0 0 0 0 0 0 0 0 0 0 0 0 0 0 0 0 0 0 0 0 0 0 0 0 1 2 3 4 3 2 1 1
0 0 0 0 0 0 0 0 0 0 0 0 0 0 0 0 0 0 0 0 0 0 0 0 0 0 0 0 0 0 0 0 0 0 0 0 0 0 0 0 0 0 0 1 4 5 4 2 1
0 0 0 0 0 0 0 0 0 0 0 0 0 0 0 0 0 0 0 0 0 0 0 0 0 0 0 0 0 0 0 0 0 0 0 0 0 0 0 0 0 0 0 1 3 4 4 3 2
0 0 0 0 0 0 0 0 0 0 0 0 0 0 0 0 0 0 0 0 0 0 0 0 0 0 0 0 0 0 0 0 0 0 0 0 0 0 0 0 0 0 0 0 2 3 3 2 2
1 0 0 0 0 0 0 0 0 0 0 0 0 0 0 0 0 0 0 0 0 0 0 0 0 0 0 0 0 0 0 0 0 0 0 0 0 0 0 0 0 0 0 0 1 1 1 1 1
2 1 0 0 0 0 0 0 0 0 0 0 0 0 0 0 0 0 0 0 0 0 0 0 0 0 0 0 0 0 0 0 0 0 0 0 0 0 0 0 0 0 0 0 0 0 0 0 1
2 1 0 0 0 0 0 0 0 0 0 0 0 0 0 0 0 0 0 0 0 0 0 0 0 0 0 0 0 0 0 0 0 0 0 0 0 0 0 0 0 0 0 0 0 0 0 0 1
1 0 0 0 0 0 0 0 0 0 0 0 0 1 1 0 0 0 0 0 0 0 0 0 0 0 0 0 0 0 0 0 0 0 0 0 0 0 0 0 0 0 0 0 0 0 0 0 1
0 0 0 0 0 0 0 0 0 0 0 0 0 1 1 0 0 0 0 0 0 0 0 0 0 0 0 0 0 0 0 0 0 0 0 0 0 0 0 0 0 0 0 0 0 0 0 0 0
0 0 0 0 0 0 0 0 0 0 0 0 0 0 0 0 0 0 0 0 0 0 0 0 0 0 0 0 0 0 0 0 0 0 0 0 0 0 0 0 0 0 0 0 0 0 0 0 0
0 0 0 0 0 0 0 0 0 0 0 0 0 0 0 0 0 0 0 0 0 0 0 0 0 0 0 0 0 0 0 0 0 0 0 0 0 0 0 0 0 0 0 0 0 0 0 0 0
0 0 0 0 0 0 0 0 0 0 0 0 0 0 0 0 0 0 0 0 0 0 0 0 0 0 0 0 0 0 0 0 0 0 0 0 0 0 0 0 0 0 0 0 0 0 0 0 0
0 0 0 0 0 0 0 0 0 0 0 0 0 0 0 0 0 0 0 0 0 0 0 0 0 0 0 0 0 0 0 0 0 0 0 0 0 0 0 0 0 0 0 0 0 0 0 0 0
0 0 0 0 0 0 0 0 0 0 0 0 0 0 0 0 0 0 0 0 0 0 0 0 0 0 0 0 0 0 0 0 0 0 0 0 0 0 0 0 0 0 0 0 0 0 0 0 0
0 0 0 0 0 0 0 0 0 0 0 0 0 0 0 0 0 0 0 0 0 0 0 0 0 0 0 0 0 0 0 0 0 0 0 0 0 0 0 0 0 0 0 0 0 0 0 0 0
0 0 0 0 0 0 0 0 0 0 0 0 0 0 0 0 0 0 0 0 0 0 0 0 0 0 0 0 0 0 0 0 0 0 0 0 0 0 0 0 0 0 0 0 0 0 0 0 0
0 0 0 0 0 0 0 0 0 0 0 0 0 0 0 0 0 0 0 0 0 0 0 0 0 0 0 0 0 0 0 0 0 0 0 0 0 0 0 0 0 0 0 0 0 0 0 0 0
0 0 0 0 0 0 0 0 0 0 0 0 0 0 0 0 0 0 0 0 0 0 0 0 0 0 0 0 0 0 0 0 0 0 0 0 0 0 0 0 0 0 0 0 0 0 0 0 0
0 0 0 0 0 0 0 0 0 0 0 0 0 0 0 0 0 0 0 0 0 0 0 0 0 0 0 0 0 0 0 0 0 0 0 0 0 0 0 0 0 0 0 0 0 0 0 0 0
0 0 0 0 0 0 0 0 0 0 0 0 0 0 0 0 0 0 0 0 0 0 0 0 0 0 0 0 0 0 0 0 0 0 0 0 0 0 0 0 0 0 0 0 0 0 0 0 0
0 0 0 0 0 0 0 0 0 0 0 0 0 0 0 0 0 0 0 0 0 0 0 0 0 0 0 0 0 0 0 0 0 0 0 0 0 0 0 0 0 0 0 0 0 0 0 0 0
0 0 0 0 0 0 0 0 0 0 0 0 0 0 0 0 0 0 0 0 0 0 0 0 0 0 0 0 0 0 0 0 0 0 0 0 0 0 0 0 0 0 0 0 0 0 0 0 0
0 0 0 0 0 0 0 0 0 0 0 0 0 0 0 0 0 0 0 0 0 0 0 0 0 0 0 0 0 0 0 0 0 0 0 0 0 0 0 0 0 0 0 0 0 0 0 0 0
0 0 0 0 0 0 0 0 0 0 0 0 0 0 0 0 0 0 0 0 0 0 0 0 0 0 0 0 0 0 0 0 0 0 0 0 0 0 0 0 0 0 0 0 0 0 0 0 0
Wind_Speed
3 4 3 3 3 2 2 2 1 1 0 0 2 4 5 3 2 1 0 4 5 5 4 6 8 8 7 6 5 5 5 4 4 4 3 3 2 2 2 1 1 2 2 2 2 2 1 1 1
4 4 3 3 3 1 3 2 2 2 2 3 2 4 4 3 2 3 2 4 6 6 5 5 8 8 7 6 6 5 4 4 3 3 2 1 1 0 0 1 2 2 2 2 2 3 3 2 2
4 3 2 2 1 2 3 2 2 1 2 2 3 3 3 3 3 3 3 7 7 5 4 5 8 8 7 6 5 4 4 3 2 2 1 1 1 1 1 2 3 3 3 4 3 3 4 4 3
3 3 3 2 2 3 3 2 1 1 1 2 3 3 2 1 4 5 7 8 7 5 4 4 8 7 6 5 4 4 3 2 1 1 1 1 2 2 2 3 4 4 4 4 4 4 5 5 4
3 3 2 1 3 3 3 2 2 2 2 2 3 4 1 2 5 8 8 7 7 5 3 3 7 6 6 5 4 3 2 2 1 1 1 2 2 3 3 4 4 5 5 5 5 5 6 6 5
3 3 2 2 4 3 2 2 2 2 2 3 4 4 1 1 6 7 7 6 6 5 4 3 6 6 5 4 3 3 2 1 1 1 1 2 3 4 4 4 5 5 5 6 6 6 7 6 6
3 3 2 2 3 3 1 2 3 3 3 4 5 5 1 2 5 7 6 5 4 4 3 2 1 2 3 3 3 2 1 0 1 2 2 3 3 4 5 5 5 6 6 6 6 6 6 6 6
4 3 1 2 2 3 1 1 1 3 2 3 4 6 5 5 6 6 5 4 3 3 3 2 1 1 0 0 1 1 0 1 2 3 3 4 5 5 6 5 5 5 6 5 5 6 6 6 5
3 3 2 3 3 3 1 1 2 1 4 2 2 4 4 9 9 7 4 3 2 3 2 2 2 1 1 1 1 0 1 3 3 4 5 5 3 3 4 5 5 5 5 5 5 5 5 4 4
3 3 5 3 2 2 1 0 1 2 3 2 2 3 7 9 9 8 7 6 5 4 3 3 3 2 1 1 1 1 1 2 2 2 3 2 2 3 3 5 6 6 6 6 5 4 4 3 1
4 4 3 2 1 1 1 1 0 4 2 4 5 8 9 9 8 8 8 7 7 5 4 4 3 2 2 1 1 1 1 1 2 2 2 2 2 2 3 2 4 4 5 3 4 4 2 1 1
3 2 1 1 0 0 0 0 0 3 5 5 7 11 11 11 10 10 9 8 5 4 4 3 3 3 2 1 1 1 0 1 1 1 1 1 1 2 2 2 2 2 2 2 2 2 2 2 1
2 1 1 2 2 1 0 1 2 4 4 3 6 9 10 11 9 8 7 6 5 5 4 4 4 4 2 2 1 1 0 0 0 1 1 1 1 1 1 1 2 2 1 1 2 2 2 2 2
2 1 1 3 2 2 0 2 1 5 3 6 9 10 9 10 9 6 6 5 5 5 5 3 4 4 3 2 2 1 0 1 1 1 1 1 1 1 1 1 2 2 2 1 1 1 1 1 1
3 2 3 2 1 1 1 3 4 3 5 7 8 8 7 7 6 8 8 7 7 5 4 4 4 4 4 3 2 1 1 1 1 1 1 1 1 0 0 1 2 2 2 2 1 2 1 1 1
3 2 1 2 1 1 3 4 5 2 5 6 6 6 6 6 6 6 7 6 6 5 5 5 4 5 4 3 2 1 1 1 1 1 1 1 1 1 1 1 2 2 2 1 1 1 1 1 2
3 2 1 2 1 2 3 5 4 2 5 6 6 6 6 6 6 6 6 7 7 6 6 5 4 5 4 3 2 2 1 1 1 1 1 1 1 1 1 1 2 2 1 1 1 1 1 1 2
4 2 1 3 2 2 3 6 6 3 5 7 6 5 6 7 9 6 6 6 6 5 5 5 4 4 4 3 2 2 2 1 1 1 1 2 1 1 1 1 2 2 1 1 1 1 1 1 1
5 4 2 2 1 2 4 6 7 4 4 6 6 6 7 8 5 4 5 6 5 5 5 5 5 4 4 2 2 1 0 1 1 1 1 1 2 2 1 1 2 1 1 1 1 0 1 2 1
4 3 1 2 1 2 2 5 5 4 5 6 7 8 8 6 4 4 5 6 6 6 6 5 6 5 4 2 2 1 1 0 1 1 2 2 2 2 1 1 1 1 1 2 1 1 0 1 1
2 3 2 1 1 2 2 5 4 3 2 2 4 5 6 8 8 7 6 6 6 6 7 6 6 5 4 3 2 2 2 2 1 1 2 2 2 2 2 1 1 1 1 1 1 0 1 0 1
2 3 3 2 2 1 1 2 5 3 3 3 3 4 5 6 7 7 7 7 7 7 6 6 6 5 4 4 4 4 2 2 2 1 2 3 3 2 2 1 1 1 1 1 1 0 1 1 0
2 2 3 2 3 2 3 1 7 3 2 4 4 5 5 6 7 8 8 8 7 6 6 5 5 4 4 4 4 4 2 2 1 1 2 2 3 3 2 2 1 1 1 2 1 0 1 1 1
3 4 5 5 4 2 1 1 5 3 4 4 3 4 5 5 6 5 4 4 4 4 5 5 5 4 4 4 4 4 4 3 1 1 2 2 2 2 3 2 2 1 1 2 1 1 1 1 1
4 5 4 5 4 3 2 1 7 5 4 5 5 5 4 5 6 6 6 6 6 6 6 6 6 5 4 4 4 4 4 4 3 3 2 2 2 2 3 2 2 1 2 1 1 1 1 2 2
3 6 6 4 3 3 2 2 7 5 4 2 2 2 3 4 5 6 7 7 7 7 7 6 7 5 5 5 5 4 4 3 3 3 2 2 2 3 3 2 2 2 2 1 0 0 1 1 2
5 2 4 6 2 1 4 5 7 4 4 4 3 1 2 4 5 5 5 6 7 8 8 8 7 6 5 5 4 4 4 4 3 3 2 2 3 3 2 2 2 2 1 1 0 0 1 1 1
4 7 5 5 4 1 4 3 4 5 4 4 3 2 4 3 3 3 4 5 6 6 6 6 7 7 6 5 5 4 4 4 3 2 3 3 3 2 2 2 2 1 1 1 0 0 0 1 1
3 4 5 4 4 5 0 5 4 4 3 3 3 3 3 3 3 3 4 4 4 4 5 5 6 5 5 5 5 4 4 4 3 3 3 3 2 2 2 2 2 1 1 1 0 1 0 1 1
3 5 6 4 2 3 3 6 4 3 3 2 3 3 3 2 2 2 2 2 2 4 4 5 6 6 6 5 5 5 4 3 4 4 4 3 3 2 2 2 1 1 1 1 1 1 1 1 1
Wind_Direction
138 104 81 57 51 47 273 246 199 251 204 1 77 99 103 95 111 145 143 138 136 136 143 148 144 138 132 127 126 125 119 115 112 110 110 114 121 128 141 154 184 200 191 187 189 195 202 209 211
121 105 64 61 76 6 281 238 198 218 173 149 91 88 86 81 87 112 129 148 137 137 137 146 144 139 135 130 125 121 116 111 107 103 95 95 85 64 171 242 251 256 254 247 241 241 244 244 243
120 80 89 82 127 208 258 239 206 227 160 148 80 62 96 125 134 153 168 146 133 135 138 151 146 142 138 134 131 125 117 112 105 94 72 38 345 311 294 272 270 273 274 264 260 261 261 262 262
106 62 63 78 244 236 241 251 177 126 116 93 109 84 66 98 154 156 145 143 137 139 142 152 150 147 143 141 136 124 114 105 93 75 18 341 326 320 304 292 285 280 277 272 268 268 269 266 270
68 83 68 316 269 259 251 230 171 160 138 114 122 116 70 11 120 133 140 145 145 148 147 154 159 156 153 149 140 128 117 99 67 49 18 350 327 313 304 299 298 296 289 279 277 272 270 268 267
73 78 103 258 273 285 267 199 158 151 131 135 131 122 113 110 133 145 148 149 152 153 152 158 172 167 165 159 154 145 131 98 40 18 356 338 329 320 312 300 301 299 294 286 279 272 269 269 267
123 122 187 230 275 290 269 153 151 146 143 164 142 120 134 176 168 148 142 141 143 147 144 148 155 165 171 173 170 165 163 99 13 356 348 338 329 328 327 318 310 303 298 291 286 278 271 269 267
137 122 196 243 245 274 313 90 118 135 146 130 131 144 184 195 157 133 124 122 130 140 149 154 143 125 128 211 206 186 182 16 5 359 359 357 356 353 341 332 321 310 302 299 297 289 283 278 275
112 93 218 231 218 261 336 49 49 78 115 123 153 169 178 142 133 126 122 124 151 172 176 172 173 173 172 192 238 20 352 10 16 9 10 13 10 360 346 337 339 333 322 315 314 305 297 293 295
122 162 221 227 212 263 318 128 150 101 108 115 82 98 121 135 146 153 164 175 185 196 199 191 191 189 182 194 66 14 14 18 19 17 12 11 4 358 4 355 358 357 354 346 339 333 335 336 329
161 192 230 267 253 267 326 325 131 130 183 199 182 157 145 151 160 171 182 187 196 197 196 192 187 179 167 150 92 33 13 16 12 18 18 18 14 7 11 4 354 356 2 3 353 355 356 354 330
166 225 228 291 319 284 249 300 135 187 221 210 179 159 158 166 176 185 190 196 189 183 195 191 175 165 162 140 99 74 25 14 13 12 25 44 30 15 5 5 349 353 354 356 357 345 341 342 336
183 224 286 290 307 269 264 240 232 248 235 160 150 154 171 178 186 193 192 188 177 184 191 186 170 165 153 134 126 104 81 55 24 13 20 65 63 15 2 353 353 347 350 353 347 346 345 342 336
173 180 298 302 322 338 302 287 226 251 169 149 161 175 186 187 187 181 183 185 187 190 189 176 166 160 147 146 145 140 123 91 57 32 28 55 79 54 6 351 347 340 332 327 332 334 334 321 313
99 60 344 313 311 305 78 307 246 235 157 166 179 187 193 201 194 192 193 189 186 185 179 174 170 155 152 154 153 139 124 99 77 46 36 49 69 69 13 342 333 325 324 332 346 350 349 333 338
93 89 321 295 226 219 135 267 275 203 170 187 195 196 200 213 215 205 192 186 179 172 174 181 169 152 153 149 140 120 108 93 65 36 26 19 22 43 25 344 322 323 335 344 345 356 351 342 339
63 132 206 283 218 185 169 244 277 187 186 207 210 205 203 215 228 218 198 186 178 175 172 169 156 150 147 135 111 92 84 73 41 27 9 355 356 6 28 340 319 334 356 352 338 23 6 332 324
173 174 200 240 246 181 218 259 276 238 205 219 220 216 209 215 224 211 194 182 172 168 166 160 149 143 127 107 84 61 51 31 20 10 344 349 341 349 4 340 330 344 7 355 352 1 3 319 303
151 154 205 249 253 186 237 265 273 252 215 220 222 216 215 223 225 194 184 170 157 160 165 164 156 154 140 129 129 120 120 329 337 330 334 338 334 342 348 339 339 352 358 329 328 350 12 357 347
134 146 218 294 268 194 269 281 278 245 222 216 219 217 215 210 191 182 177 169 169 173 173 170 170 165 169 157 148 152 148 216 265 307 321 328 335 330 324 324 315 324 336 350 358 30 55 356 20
151 172 195 190 20 44 7 323 302 287 270 238 219 214 208 199 193 187 181 181 176 181 182 181 179 172 172 148 112 83 58 29 6 334 314 316 319 317 311 302 303 307 285 291 300 279 133 109 351
200 212 174 143 96 353 49 307 299 299 303 262 239 215 207 203 192 188 185 188 191 192 181 177 173 169 166 155 154 153 158 189 231 247 278 304 313 312 309 308 311 301 281 272 275 204 169 142 51
182 97 112 107 113 43 22 98 292 329 292 268 246 228 215 204 195 194 194 194 190 180 174 173 166 169 169 172 171 160 167 197 235 274 294 307 314 314 311 303 304 297 279 270 264 222 174 160 161
130 75 61 53 68 38 304 139 287 267 247 268 252 231 217 203 197 198 193 179 176 166 165 164 168 182 181 181 179 176 181 189 211 263 285 302 308 309 313 304 299 290 282 273 251 214 188 185 168
90 86 46 23 26 276 289 195 257 264 256 241 240 233 214 193 185 188 187 187 186 183 180 176 177 190 188 184 190 193 192 191 206 224 238 266 292 294 299 307 296 292 283 272 245 210 209 190 176
151 131 145 160 193 288 344 260 265 279 293 267 226 206 192 194 195 199 199 195 193 193 188 185 189 196 191 193 202 200 197 196 215 223 224 239 251 265 283 295 291 292 299 300 253 224 228 197 197
132 142 153 124 120 41 319 308 314 349 11 23 34 62 227 219 210 210 204 198 195 196 196 193 192 199 200 202 201 204 207 209 220 230 232 245 256 267 281 290 289 297 303 314 312 264 250 201 205
123 138 101 101 118 47 330 325 295 317 331 350 353 297 272 260 244 228 213 207 205 205 203 193 193 199 201 198 201 208 214 217 218 218 239 252 264 271 285 289 285 292 295 303 40 286 267 152 205
113 96 100 98 130 136 134 288 249 261 275 282 287 284 272 257 244 236 228 215 203 195 191 194 198 200 205 205 205 209 215 215 215 223 237 244 253 262 259 260 265 277 289 290 181 239 207 178 238
152 152 144 135 160 139 146 267 289 286 283 275 293 305 302 276 257 244 230 203 198 201 201 200 200 204 211 206 203 212 216 213 220 233 241 234 240 249 244 242 245 257 268 265 218 230 216 207 237